Papa, Hungary

11:46 AM CET on February 19, 2018 (GMT +0100)
Papa

Weather History for LHPA - December, 2012

Change the Weather History Date:

Thursday, December 6, 2012

  Actual Average Record
Temperature  
Mean Temperature 30 °F -  
Max Temperature 37 °F - - ()
Min Temperature 23 °F - - ()
Degree Days  
Heating Degree Days 35    
Moisture  
Dew Point 29 °F    
Average Humidity 95    
Maximum Humidity 100    
Minimum Humidity 75    
Precipitation  
Precipitation 0.00 in - - ()
Sea Level Pressure  
Sea Level Pressure 29.83 in    
Wind  
Wind Speed 3 mph ()    
Max Wind Speed 9 mph    
Max Gust Speed -    
Visibility 3.3 miles    
Events      
T = Trace of Precipitation, MM = Missing Value Source: Averaged Metar Reports

Daily Weather History Graph

Daily Weather History Graph

Search for Another Location

Airport or City:

Trip Planner

Search our weather history database for the weather conditions in past years. The results will help you decide how hot, cold, wet, or windy it might be!

Date:

Astronomy

Dec. 06, 2012 Rise Set
Actual Time 7:21 AM CET 4:00 PM CET
Civil Twilight 6:46 AM CET 4:35 PM CET
Nautical Twilight 6:07 AM CET 5:14 PM CET
Astronomical Twilight 5:30 AM CET 5:51 PM CET
Moon 11:58 PM CET (12/6) 11:43 AM CET (12/6)
Length of Visible Light 9h 49m
Length of Day
8h 38m
Waning Gibbous, 52% of the Moon is Illuminated
Dec 6
Waning Gibbous
Dec 6
Last Quarter
Dec 13
New
Dec 20
First Quarter
Dec 28
Full

Hourly Weather History & Observations

Time (CET) Temp. Windchill Dew Point Humidity Pressure Visibility Wind Dir Wind Speed Gust Speed Precip Events Conditions
12:15 AM 32.0 °F - 32.0 °F 100% 29.74 in 5.0 mi Calm Calm - N/A   Unknown
12:45 AM 30.2 °F - 30.2 °F 100% 29.74 in 5.0 mi Calm Calm - N/A   Unknown
1:15 AM 30.2 °F 25.5 °F 30.2 °F 100% 29.74 in 3.7 mi SE 4.5 mph - N/A   Unknown
1:44 AM 30.2 °F - 30.2 °F 100% 29.74 in 3.1 mi Calm Calm - N/A   Scattered Clouds
1:45 AM 30.2 °F - 30.2 °F 100% 29.74 in 3.1 mi SSE 2.2 mph - N/A   Scattered Clouds
2:15 AM 28.4 °F 23.4 °F 28.4 °F 100% 29.74 in 2.5 mi South 4.5 mph - N/A   Scattered Clouds
2:45 AM 28.4 °F - 28.4 °F 100% 29.74 in 2.2 mi South 2.2 mph - N/A   Partly Cloudy
2:58 AM 28.4 °F - 28.4 °F 100% 29.74 in 1.9 mi South 2.2 mph - N/A   Partly Cloudy
3:15 AM 26.6 °F - 26.6 °F 100% 29.74 in 1.9 mi South 2.2 mph - N/A   Partly Cloudy
3:45 AM 26.6 °F - 26.6 °F 100% 29.74 in 1.9 mi South 2.2 mph - N/A   Partly Cloudy
4:15 AM 24.8 °F - 24.8 °F 100% 29.74 in 1.9 mi SE 2.2 mph - N/A   Partly Cloudy
4:45 AM 24.8 °F - 24.8 °F 100% 29.74 in 1.9 mi SE 2.2 mph - N/A   Partly Cloudy
5:15 AM 24.8 °F - 24.8 °F 100% 29.74 in 1.9 mi SE 2.2 mph - N/A   Partly Cloudy
5:45 AM - - - N/A% - 3.1 mi SSW 6.7 mph - N/A   Mostly Cloudy
6:11 AM 24.8 °F 19.2 °F 24.8 °F 100% 29.74 in 2.5 mi SE 4.5 mph - N/A   Scattered Clouds
6:15 AM 24.8 °F - 24.8 °F 100% 29.74 in 2.5 mi SE 2.2 mph - N/A   Scattered Clouds
6:45 AM 23.0 °F - 23.0 °F 100% 29.77 in 2.8 mi SE 2.2 mph - N/A   Scattered Clouds
6:57 AM 23.0 °F - 23.0 °F 100% 29.77 in 3.7 mi Calm Calm - N/A   Unknown
7:15 AM 23.0 °F - 23.0 °F 100% 29.77 in 3.7 mi Calm Calm - N/A   Unknown
7:45 AM 23.0 °F - 23.0 °F 100% 29.77 in 3.7 mi WSW 2.2 mph - N/A   Unknown
8:15 AM 26.6 °F - 26.6 °F 100% 29.80 in 3.7 mi SSW 2.2 mph - N/A   Unknown
8:45 AM - - - N/A% - 3.1 mi Variable 4.5 mph - N/A   Unknown
8:56 AM 30.2 °F - 30.2 °F 100% 29.80 in 1.9 mi Calm Calm - N/A   Scattered Clouds
9:15 AM 32.0 °F - 32.0 °F 100% 29.80 in 2.5 mi SW 2.2 mph - N/A   Scattered Clouds
9:32 AM 32.0 °F 27.6 °F 32.0 °F 100% 29.80 in 3.1 mi South 4.5 mph - N/A   Partly Cloudy
10:15 AM 33.8 °F 27.9 °F 33.8 °F 100% 29.80 in 3.7 mi SSW 6.7 mph - N/A   Unknown
10:45 AM 35.6 °F 30.0 °F 33.8 °F 93% 29.80 in 5.0 mi SSW 6.7 mph - N/A   Unknown
11:15 AM 37.4 °F 30.9 °F 33.8 °F 87% 29.80 in - SW 8.9 mph - N/A   Clear
11:45 AM - - - N/A% - 3.1 mi WSW 8.9 mph - N/A   Unknown
12:15 PM 37.4 °F 32.2 °F 33.8 °F 87% 29.80 in 6.2 mi WSW 6.7 mph - N/A   Scattered Clouds
12:45 PM 37.4 °F 32.2 °F 32.0 °F 81% 29.80 in 6.2 mi WSW 6.7 mph - N/A   Partly Cloudy
1:15 PM 37.4 °F 32.2 °F 33.8 °F 87% 29.80 in 6.2 mi WSW 6.7 mph - N/A   Mostly Cloudy
1:45 PM 35.6 °F 30.0 °F 33.8 °F 93% 29.80 in 6.2 mi WSW 6.7 mph - N/A   Mostly Cloudy
2:15 PM 33.8 °F 27.9 °F 32.0 °F 93% 29.83 in 3.7 mi West 6.7 mph - N/A   Overcast
2:44 PM 33.8 °F 29.7 °F 33.8 °F 100% 29.83 in 3.1 mi WSW 4.5 mph - N/A   Overcast
2:45 PM - - - N/A% - 3.7 mi WNW 8.9 mph - N/A   Mostly Cloudy
3:15 PM 33.8 °F 29.7 °F 33.8 °F 100% 29.86 in 3.1 mi SSW 4.5 mph - N/A   Scattered Clouds
3:45 PM 33.8 °F 29.7 °F 33.8 °F 100% 29.86 in 2.5 mi WSW 4.5 mph - N/A   Scattered Clouds
4:15 PM 33.8 °F 29.7 °F 33.8 °F 100% 29.89 in 2.5 mi West 4.5 mph - N/A   Mostly Cloudy
4:38 PM 32.0 °F - 32.0 °F 100% 29.89 in 1.2 mi SSW 2.2 mph - N/A   Mostly Cloudy
4:45 PM 32.0 °F 27.6 °F 32.0 °F 100% 29.89 in 1.2 mi WSW 4.5 mph - N/A   Mostly Cloudy
5:15 PM 30.2 °F 25.5 °F 30.2 °F 100% 29.89 in 1.2 mi West 4.5 mph - N/A   Mostly Cloudy
5:42 PM 30.2 °F 23.5 °F 30.2 °F 100% 29.92 in 3.1 mi NNW 6.7 mph - N/A   Mostly Cloudy
5:45 PM - - - N/A% - 3.1 mi WNW 4.5 mph - N/A   Mostly Cloudy
6:15 PM 32.0 °F 27.6 °F 30.2 °F 93% 29.92 in 2.5 mi North 4.5 mph - N/A   Mostly Cloudy
6:45 PM 30.2 °F 25.5 °F 28.4 °F 93% 29.95 in - North 4.5 mph - N/A   Clear
7:15 PM 32.0 °F 24.3 °F 26.6 °F 80% 29.95 in - NNW 8.9 mph - N/A   Clear
7:45 PM 32.0 °F 24.3 °F 24.8 °F 75% 29.95 in - NNW 8.9 mph - N/A   Clear
8:15 PM 30.2 °F 23.5 °F 24.8 °F 80% 29.98 in - NNW 6.7 mph - N/A   Clear
8:45 PM - - - N/A% - 6.2 mi NNW 6.7 mph - N/A   Clear
9:15 PM 30.2 °F 22.1 °F 24.8 °F 80% 29.98 in - NW 8.9 mph - N/A   Clear
9:45 PM 28.4 °F 21.4 °F 23.0 °F 80% 29.98 in - NNW 6.7 mph - N/A   Clear
10:15 PM 26.6 °F 21.3 °F 23.0 °F 86% 29.98 in - NNW 4.5 mph - N/A   Clear
10:45 PM 26.6 °F 21.3 °F 23.0 °F 86% 30.01 in - NNW 4.5 mph - N/A   Clear
11:15 PM 28.4 °F 21.4 °F 23.0 °F 80% 30.01 in - NW 6.7 mph - N/A   Clear
11:45 PM - - - N/A% - 6.2 mi North - - N/A   Scattered Clouds